Date String (YYYY-MM-DD hh:mm:ss) UTC,Instrument flags,absolute air pressure of the measurement (hPa),sample flow rate (lpm),inlet stack bypass flow (lpm),air temperature of the measurement (°C),ambient temperature measured by the external sensor (°C),aerosol sample conditioner tube jacket temperature (°C),OPC LED temperature (°C),internal box temperature (°C),relative humidity of the measurement (%),span deviation,mass concentration of particles derived from Lorenz-Mie calculation of OPC scattering (μg/m³),mass concentration of particles derived from Lorenz-Mie calculation of OPC scattering (μg/m³),mass concentration of particles derived from Lorenz-Mie calculation of OPC scattering (μg/m³)
DateTimeUTC,F1_M11,P_M11,Q1_M11,Q2_M11,T1_M11,T2_M11,T3_M11,T4_M11,T5_M11,U1_M11,ZSPAN_M11,X2_M11,X0_M11,X1_M11
2023-09-17 10:00:00,SystemResetWarning,0835.2,4.99,000.00,028.6,027.1,000.0,037.1,030.1,15.6,0000.0,0004.24,0007.31,0003.83
2023-09-17 10:01:00,SystemResetWarning,0835.2,4.99,000.00,028.6,027.1,000.0,037.1,030.2,15.6,0000.0,0004.22,0007.21,0003.82
2023-09-17 10:02:00,SystemResetWarning,0835.2,4.99,000.00,028.6,027.1,000.0,037.1,030.2,15.6,0000.0,0004.19,0007.22,0003.81
2023-09-17 10:03:00,SystemResetWarning,0835.2,4.99,000.00,028.6,027.1,000.0,037.1,030.2,15.6,0000.0,0004.18,0007.67,0003.81
2023-09-17 10:04:00,SystemResetWarning,0835.3,5.00,000.00,028.6,027.1,000.0,037.1,030.1,15.6,0000.0,0004.16,0007.61,0003.80
2023-09-17 10:05:00,SystemResetWarning,0835.3,5.00,000.00,028.6,027.1,000.0,037.1,030.1,15.5,0000.0,0004.16,0007.52,0003.81
2023-09-17 10:06:00,SystemResetWarning,0835.3,4.99,000.00,028.6,027.1,000.0,037.1,030.2,15.4,0000.0,0004.16,0007.49,0003.81
2023-09-17 10:07:00,SystemResetWarning,0835.3,5.00,000.00,028.6,027.1,000.0,037.1,030.2,15.4,0000.0,0004.18,0007.58,0003.81
2023-09-17 10:08:00,SystemResetWarning,0835.3,5.00,000.00,028.6,027.1,000.0,037.1,030.2,15.3,0000.0,0004.22,0007.69,0003.81
2023-09-17 10:09:00,SystemResetWarning,0835.3,5.00,000.00,028.6,027.1,000.0,037.1,030.2,15.5,0000.0,0004.21,0007.98,0003.80
2023-09-17 10:10:00,SystemResetWarning,0835.3,5.00,000.00,028.6,027.1,000.0,037.1,030.2,15.6,0000.0,0004.20,0008.14,0003.79
2023-09-17 10:11:00,SystemResetWarning,0835.3,5.00,000.00,028.6,027.1,000.0,037.1,030.1,15.6,0000.0,0004.18,0008.12,0003.76
2023-09-17 10:12:00,SystemResetWarning,0835.3,5.00,000.00,028.6,027.1,000.0,037.1,030.1,15.7,0000.0,0004.17,0008.13,0003.74
2023-09-17 10:13:00,SystemResetWarning,0835.3,5.00,000.00,028.6,027.1,000.0,037.1,030.1,15.8,0000.0,0004.14,0008.04,0003.71
2023-09-17 10:14:00,SystemResetWarning,0835.3,5.00,000.00,028.6,027.1,000.0,037.1,030.1,15.9,0000.0,0004.12,0007.60,0003.67
2023-09-17 10:15:00,SystemResetWarning,0835.3,5.00,000.00,028.6,027.1,000.0,037.1,030.1,15.9,0000.0,0004.08,0007.52,0003.64
2023-09-17 10:16:00,SystemResetWarning,0835.3,5.00,000.00,028.6,027.1,000.0,037.1,030.1,15.5,0000.0,0004.02,0007.45,0003.59
2023-09-17 10:17:00,SystemResetWarning,0835.3,5.00,000.00,028.6,027.0,000.0,037.0,030.1,15.5,0000.0,0003.98,0007.69,0003.55
2023-09-17 10:18:00,SystemResetWarning,0835.3,5.00,000.00,028.6,027.0,000.0,037.0,030.1,15.6,0000.0,0003.91,0007.78,0003.51
2023-09-17 10:19:00,SystemResetWarning,0835.3,5.00,000.00,028.6,027.0,000.0,037.0,030.1,15.5,0000.0,0003.86,0007.69,0003.46
2023-09-17 10:20:00,SystemResetWarning,0835.2,5.00,000.00,028.6,027.0,000.0,037.0,030.1,15.6,0000.0,0003.81,0007.11,0003.44
2023-09-17 10:21:00,SystemResetWarning,0835.3,5.00,000.00,028.6,027.0,000.0,037.0,030.1,15.7,0000.0,0003.81,0006.95,0003.41
2023-09-17 10:22:00,SystemResetWarning,0835.3,5.00,000.00,028.6,027.0,000.0,037.0,030.1,16.1,0000.0,0003.84,0007.43,0003.40
2023-09-17 10:23:00,SystemResetWarning,0835.2,4.99,000.00,028.6,027.0,000.0,037.0,030.1,15.9,0000.0,0003.84,0007.80,0003.39
2023-09-17 10:24:00,SystemResetWarning,0835.3,5.02,000.00,028.6,027.0,000.0,037.0,030.1,15.9,0000.0,0003.83,0007.80,0003.39
2023-09-17 10:25:00,SystemResetWarning,0835.3,5.00,000.00,028.6,027.0,000.0,037.0,030.1,15.8,0000.0,0003.83,0007.78,0003.39
2023-09-17 10:26:00,SystemResetWarning,0835.3,4.99,000.00,028.6,027.0,000.0,037.0,030.1,15.7,0000.0,0003.81,0007.80,0003.38
2023-09-17 10:27:00,SystemResetWarning,0835.3,4.99,000.00,028.6,027.0,000.0,037.0,030.1,15.6,0000.0,0003.81,0007.86,0003.38
2023-09-17 10:28:00,SystemResetWarning,0835.3,4.99,000.00,028.6,027.0,000.0,037.0,030.1,15.6,0000.0,0003.81,0007.59,0003.38
2023-09-17 10:29:00,SystemResetWarning,0835.3,5.00,000.00,028.6,027.0,000.0,037.0,030.1,15.6,0000.0,0003.82,0007.33,0003.39
2023-09-17 10:30:00,SystemResetWarning,0835.3,5.01,000.00,028.6,027.0,000.0,037.0,030.1,15.6,0000.0,0003.83,0007.33,0003.40
2023-09-17 10:31:00,SystemResetWarning,0835.3,5.00,000.00,028.6,027.0,000.0,037.0,030.1,15.6,0000.0,0003.81,0007.28,0003.39
2023-09-17 10:32:00,SystemResetWarning,0835.3,5.01,000.00,028.5,027.0,000.0,037.0,030.1,15.9,0000.0,0003.77,0007.10,0003.38
2023-09-17 10:33:00,SystemResetWarning,0835.3,5.00,000.00,028.5,027.0,000.0,037.0,030.0,15.9,0000.0,0003.72,0006.56,0003.38
2023-09-17 10:34:00,SystemResetWarning,0835.3,5.00,000.00,028.5,027.0,000.0,037.0,030.1,15.8,0000.0,0003.70,0005.86,0003.38
2023-09-17 10:35:00,SystemResetWarning,0835.2,4.99,000.00,028.5,027.0,000.0,037.0,030.0,15.6,0000.0,0003.69,0005.82,0003.37
2023-09-17 10:36:00,SystemResetWarning,0835.2,5.00,000.00,028.5,027.0,000.0,037.0,030.1,15.6,0000.0,0003.69,0005.96,0003.37
2023-09-17 10:37:00,SystemResetWarning,0835.2,5.01,000.00,028.5,027.0,000.0,037.0,030.1,15.5,0000.0,0003.72,0006.23,0003.37
2023-09-17 10:38:00,SystemResetWarning,0835.2,4.99,000.00,028.5,027.0,000.0,037.0,030.1,15.5,0000.0,0003.74,0006.19,0003.38
2023-09-17 10:39:00,SystemResetWarning,0835.2,4.99,000.00,028.5,027.0,000.0,037.0,030.1,15.8,0000.0,0003.75,0006.24,0003.38
2023-09-17 10:40:00,SystemResetWarning,0835.3,5.00,000.00,028.5,027.0,000.0,037.0,030.1,15.6,0000.0,0003.76,0006.28,0003.38
2023-09-17 10:41:00,SystemResetWarning,0835.3,5.00,000.00,028.5,027.0,000.0,037.0,030.0,15.4,0000.0,0003.74,0006.28,0003.37
2023-09-17 10:42:00,SystemResetWarning,0835.3,5.00,000.00,028.5,027.0,000.0,037.0,030.0,15.3,0000.0,0003.75,0006.45,0003.36
2023-09-17 10:43:00,SystemResetWarning,0835.3,5.00,000.00,028.5,027.0,000.0,037.0,030.0,15.3,0000.0,0003.75,0006.99,0003.36
2023-09-17 10:44:00,SystemResetWarning,0835.3,5.00,000.00,028.5,027.0,000.0,037.0,030.1,15.3,0000.0,0003.74,0007.50,0003.35
2023-09-17 10:45:00,SystemResetWarning,0835.3,5.01,000.00,028.5,027.0,000.0,037.0,030.1,15.4,0000.0,0003.74,0007.56,0003.35
2023-09-17 10:46:00,SystemResetWarning,0835.3,5.01,000.00,028.5,027.0,000.0,037.0,030.0,15.5,0000.0,0003.75,0007.56,0003.34
2023-09-17 10:47:00,SystemResetWarning,0835.3,5.00,000.00,028.5,027.0,000.0,037.0,030.0,15.6,0000.0,0003.75,0007.57,0003.34
2023-09-17 10:48:00,SystemResetWarning,0835.3,5.00,000.00,028.5,027.0,000.0,037.0,030.1,15.6,0000.0,0003.75,0007.41,0003.33
2023-09-17 10:49:00,SystemResetWarning,0835.3,4.99,000.00,028.5,027.0,000.0,037.0,030.0,15.7,0000.0,0003.73,0007.37,0003.33
2023-09-17 10:50:00,SystemResetWarning,0835.2,4.99,000.00,028.5,026.9,000.0,037.0,030.0,15.6,0000.0,0003.71,0007.35,0003.32
2023-09-17 10:51:00,SystemResetWarning,0835.2,5.01,000.00,028.5,026.9,000.0,037.0,030.0,15.7,0000.0,0003.68,0007.31,0003.30
2023-09-17 10:52:00,SystemResetWarning,0835.2,5.01,000.00,028.5,026.9,000.0,037.0,030.0,15.7,0000.0,0003.66,0007.25,0003.29
2023-09-17 10:53:00,SystemResetWarning,0835.2,4.98,000.00,028.5,026.9,000.0,037.0,030.0,15.6,0000.0,0003.65,0007.05,0003.29
2023-09-17 10:54:00,SystemResetWarning,0835.2,5.00,000.00,028.5,026.9,000.0,037.0,030.0,15.5,0000.0,0003.64,0006.75,0003.29
2023-09-17 10:55:00,SystemResetWarning,0835.2,5.01,000.00,028.5,026.9,000.0,037.0,030.0,15.5,0000.0,0003.67,0005.81,0003.30
2023-09-17 10:56:00,SystemResetWarning,0835.3,4.99,000.00,028.5,026.9,000.0,036.9,030.0,15.5,0000.0,0003.67,0005.78,0003.30
2023-09-17 10:57:00,SystemResetWarning,0835.3,4.99,000.00,028.5,026.9,000.0,036.9,030.0,15.4,0000.0,0003.68,0005.76,0003.30
2023-09-17 10:58:00,SystemResetWarning,0835.3,4.99,000.00,028.5,026.9,000.0,036.9,030.0,15.4,0000.0,0003.67,0005.68,0003.30
2023-09-17 10:59:00,SystemResetWarning,0835.3,5.01,000.00,028.5,026.9,000.0,036.9,030.0,15.4,0000.0,0003.64,0005.56,0003.30
